Stations météo

réclame
Mon MeteoGroup
Capo Bellavista, Italie (16550): Température de l'air & dewpoint: 15.02.2018 16:00:00 - 21.02.2018 16:00:00 (CET)Capo Bellavista, Italie (16550): Vitesse du vent: 15.02.2018 16:00:00 - 21.02.2018 16:00:00 (CET)Capo Bellavista, Italie (16550): Direction du vent: 15.02.2018 16:00:00 - 21.02.2018 16:00:00 (CET)Capo Bellavista, Italie (16550): reduced air pressure: 15.02.2018 16:00:00 - 21.02.2018 16:00:00 (CET)Capo Bellavista, Italie (16550): visibility: 15.02.2018 16:00:00 - 21.02.2018 16:00:00 (CET)Capo Bellavista, Italie (16550): Ensoleillement: 15.02.2018 16:00:00 - 21.02.2018 16:00:00 (CET)
Date & Time tt [°C] td [°C] ff [km/h] ff [knt] dd ppp [hPa] vv [km] sd [min]
21.02.2018 16:00:00 9,0 2,8 15 8 E 1001,4 20 30
21.02.2018 15:00:00 10,4 3,0 15 8 E 1001,4 30 60
21.02.2018 14:00:00 11,0 2,8 18 10 E 1002,6 30 60
21.02.2018 13:00:00 10,6 1,9 18 10 ENE 1002,5 30 60
21.02.2018 12:00:00 11,0 1,5 18 10 ENE 1002,4 30 60
21.02.2018 11:00:00 11,2 2,5 15 8 E 1002,6 30 60
21.02.2018 10:00:00 10,2 1,3 0 0 N 1002,5 30 60
21.02.2018 09:00:00 6,2 -0,7 13 7 WNW 1001,3 30 60
21.02.2018 08:00:00 5,0 0,5 22 12 NW 1001,3 25 24
21.02.2018 07:00:00 4,8 0,2 22 12 NW 1001,3 25 -
21.02.2018 06:00:00 5,0 1,0 22 12 NW 1001,3 25 -
21.02.2018 05:00:00 6,0 0,6 26 14 NNW 1001,6 20 -
21.02.2018 04:00:00 6,2 1,9 28 15 NNW 1001,9 20 -
21.02.2018 03:00:00 6,6 2,3 26 14 NNW 1002,3 20 -
21.02.2018 02:00:00 6,6 2,8 18 10 NW 1002,9 20 -
21.02.2018 01:00:00 6,6 2,8 21 11 NNW 1002,7 20 -
21.02.2018 00:00:00 6,8 3,5 24 13 NW 1002,7 20 -
20.02.2018 23:00:00 7,0 3,7 22 12 NNW 1002,4 20 -
20.02.2018 22:00:00 6,6 3,7 22 12 NNW 1002,4 20 -
20.02.2018 21:00:00 6,0 3,9 26 14 NNE 1002,4 20 -
20.02.2018 20:00:00 6,4 4,4 16 9 NW 1002,4 25 -
20.02.2018 19:00:00 6,4 3,9 16 9 NNW 1002,4 20 -
20.02.2018 18:00:00 6,0 4,4 11 6 NW 1002,7 16 0
20.02.2018 17:00:00 6,8 4,8 0 0 N 1002,7 16 0
20.02.2018 16:00:00 7,2 4,8 15 8 NNW 1003,1 16 0
20.02.2018 15:00:00 7,2 4,8 24 13 WNW 1003,1 16 0
20.02.2018 14:00:00 11,4 1,3 5 3 S 1004,4 25 0
20.02.2018 13:00:00 12,0 2,1 0 0 N 1004,8 25 0
20.02.2018 12:00:00 11,4 1,8 0 0 N 1005,3 25 0
20.02.2018 11:00:00 11,0 1,2 0 0 N 1006,0 25 0
20.02.2018 10:00:00 11,4 1,3 0 0 N 1006,3 25 6
20.02.2018 09:00:00 7,8 0,1 0 0 N 1007,9 30 0
20.02.2018 08:00:00 7,8 -0,4 0 0 N 1008,3 30 0
20.02.2018 07:00:00 7,8 1,0 8 4 WSW 1008,4 30 0
20.02.2018 06:00:00 6,6 1,9 21 11 NW 1010,5 20 -
20.02.2018 05:00:00 6,6 2,9 15 8 WNW 1010,6 20 -
20.02.2018 04:00:00 6,8 3,2 22 12 WNW 1010,6 20 -
20.02.2018 03:00:00 7,0 3,6 18 10 WNW 1011,0 20 -
20.02.2018 02:00:00 7,4 4,5 21 11 NW 1011,0 20 -
20.02.2018 01:00:00 7,6 5,6 15 8 NW 1011,0 20 -
20.02.2018 00:00:00 7,8 5,9 22 12 WNW 1011,1 20 -
19.02.2018 23:00:00 8,0 6,3 16 9 WNW 1011,3 20 -
19.02.2018 22:00:00 8,4 6,5 15 8 NW 1011,5 20 -
19.02.2018 21:00:00 8,6 6,7 15 8 NE 1011,6 20 -
19.02.2018 20:00:00 8,8 7,2 13 7 E 1011,8 20 -
19.02.2018 19:00:00 9,6 8,2 13 7 NE 1011,7 15 -
19.02.2018 18:00:00 10,4 9,0 15 8 NE 1011,5 25 0
19.02.2018 17:00:00 11,4 8,1 9 5 ENE 1011,9 30 0
19.02.2018 16:00:00 11,4 7,5 24 13 ENE 1012,3 30 0
19.02.2018 15:00:00 11,6 7,9 21 11 ENE 1012,3 30 0
19.02.2018 14:00:00 12,0 8,5 21 11 ENE 1012,3 30 0
19.02.2018 13:00:00 12,0 7,9 22 12 ENE 1011,9 30 30
19.02.2018 12:00:00 12,8 8,1 21 11 ENE 1012,2 30 60
19.02.2018 11:00:00 13,0 8,1 13 7 ENE 1012,5 30 0
19.02.2018 10:00:00 12,0 7,1 13 7 NNE 1012,9 30 30
19.02.2018 09:00:00 11,6 7,3 15 8 NE 1013,7 20 48
19.02.2018 08:00:00 10,0 3,5 0 0 N 1013,8 20 24
19.02.2018 07:00:00 8,0 2,1 9 5 WNW 1012,2 20 -
19.02.2018 06:00:00 8,0 2,9 13 7 NW 1012,2 20 -
19.02.2018 05:00:00 7,8 2,7 11 6 NW 1012,4 20 -
19.02.2018 04:00:00 8,0 2,5 9 5 NW 1012,4 20 -
19.02.2018 03:00:00 8,6 2,4 15 8 WNW 1013,1 20 -
19.02.2018 02:00:00 9,0 2,8 0 0 N 1013,3 20 -
19.02.2018 01:00:00 9,6 3,4 15 8 NNE 1013,2 20 -
19.02.2018 00:00:00 9,8 1,2 15 8 WNW 1013,2 20 -
18.02.2018 23:00:00 9,8 0,9 16 9 W 1013,2 20 -
18.02.2018 22:00:00 9,8 0,7 21 11 WNW 1013,3 20 -
18.02.2018 21:00:00 10,6 1,2 15 8 W 1013,2 20 -
18.02.2018 20:00:00 11,6 1,5 13 7 WNW 1013,1 20 -
18.02.2018 19:00:00 12,0 9,2 2 1 NW 1012,7 20 -
18.02.2018 18:00:00 12,4 9,0 0 0 N 1012,8 20 0
18.02.2018 17:00:00 14,0 9,7 2 1 S 1012,7 20 60
18.02.2018 16:00:00 14,8 9,8 2 1 SSE 1012,7 20 60
18.02.2018 15:00:00 14,8 9,8 11 6 ESE 1012,8 20 60
18.02.2018 14:00:00 14,8 9,4 9 5 E 1013,4 20 60
18.02.2018 13:00:00 14,4 9,4 13 7 E 1014,2 20 54
18.02.2018 12:00:00 14,2 9,4 15 8 E 1014,5 20 54
18.02.2018 11:00:00 13,6 10,8 15 8 E 1014,8 20 48
18.02.2018 10:00:00 12,0 9,5 4 2 NW 1015,5 20 0
18.02.2018 09:00:00 11,2 9,0 2 1 NNW 1015,4 20 0
18.02.2018 08:00:00 11,0 8,6 2 1 SW 1015,1 20 0
18.02.2018 07:00:00 11,0 8,7 2 1 E 1015,1 16 -
18.02.2018 06:00:00 11,0 8,7 2 1 ENE 1016,1 16 -
18.02.2018 05:00:00 11,0 9,1 11 6 N 1016,0 16 -
18.02.2018 04:00:00 11,8 9,9 11 6 NNW 1016,0 16 -
18.02.2018 03:00:00 11,8 10,2 2 1 SW 1016,9 16 -
18.02.2018 02:00:00 12,0 10,2 2 1 SW 1017,5 16 -
18.02.2018 01:00:00 12,0 10,4 2 1 W 1017,2 5 -
18.02.2018 00:00:00 11,8 10,0 5 3 SSW 1018,2 5 -
17.02.2018 23:00:00 11,8 10,0 8 4 SW 1018,4 5 -
17.02.2018 22:00:00 12,0 10,3 2 1 SW 1018,8 4,0 -
17.02.2018 21:00:00 12,0 10,2 2 1 SW 1018,5 10 -
17.02.2018 20:00:00 12,8 11,0 2 1 SW 1019,0 10 -
17.02.2018 19:00:00 11,8 9,7 5 3 SSW 1019,1 10 -
17.02.2018 18:00:00 12,0 9,5 22 12 SSW 1018,8 15 0
17.02.2018 17:00:00 12,0 9,2 24 13 SSW 1018,7 16 0
17.02.2018 16:00:00 12,0 10,1 28 15 SSW 1018,9 20 0
17.02.2018 15:00:00 12,0 10,4 29 16 S 1019,0 20 -
17.02.2018 14:00:00 12,6 11,0 5 3 SSE 1019,3 4,0 0
17.02.2018 13:00:00 15,2 11,8 29 16 S 1020,4 4,0 0
17.02.2018 12:00:00 15,0 11,4 0 0 N 1020,6 16 0
17.02.2018 11:00:00 14,0 11,0 0 0 N 1021,0 16 0
17.02.2018 10:00:00 13,4 10,8 2 1 ESE 1021,4 20 0
17.02.2018 09:00:00 11,8 9,2 0 0 N 1021,6 25 0
17.02.2018 08:00:00 11,2 9,1 0 0 N 1021,6 20 0
17.02.2018 07:00:00 11,2 9,5 2 1 W 1021,6 20 -
17.02.2018 06:00:00 11,0 8,9 9 5 NNW 1021,8 20 -
17.02.2018 05:00:00 11,0 8,6 9 5 N 1022,1 20 -
17.02.2018 04:00:00 11,0 9,2 0 0 N 1022,1 20 -
17.02.2018 03:00:00 11,0 8,4 0 0 N 1022,9 20 -
17.02.2018 02:00:00 11,2 8,6 9 5 NNW 1023,1 20 -
17.02.2018 01:00:00 11,4 9,0 11 6 NNW 1023,1 20 -
17.02.2018 00:00:00 11,8 9,9 0 0 N 1023,1 20 -
16.02.2018 23:00:00 12,0 9,9 0 0 N 1023,0 20 -
16.02.2018 22:00:00 12,2 9,9 0 0 N 1023,0 20 -
16.02.2018 21:00:00 12,6 10,7 0 0 N 1023,1 25 -
16.02.2018 20:00:00 12,6 11,0 0 0 N 1023,2 25 -
16.02.2018 19:00:00 12,8 11,4 0 0 N 1022,9 25 -
16.02.2018 18:00:00 13,0 11,7 0 0 N 1023,1 30 -
16.02.2018 17:00:00 13,6 11,8 4 2 S 1022,7 30 0
16.02.2018 16:00:00 14,0 11,9 9 5 S 1023,1 20 6
16.02.2018 15:00:00 14,6 11,2 16 9 S 1022,9 30 12
16.02.2018 14:00:00 15,0 9,1 22 12 SE 1023,9 30 60
16.02.2018 13:00:00 15,4 10,0 16 9 SSE 1023,6 30 60
16.02.2018 12:00:00 16,6 10,5 2 1 E 1024,4 30 60
16.02.2018 11:00:00 16,0 10,1 2 1 S 1023,6 30 60
16.02.2018 10:00:00 12,0 8,7 5 3 S 1023,9 20 48
16.02.2018 09:00:00 9,8 5,2 4 2 WNW 1024,1 30 60
16.02.2018 08:00:00 9,2 4,8 9 5 WNW 1023,7 30 0
16.02.2018 07:00:00 8,6 4,8 11 6 WNW 1023,7 25 -
16.02.2018 06:00:00 8,2 3,8 5 3 NW 1024,3 20 -
16.02.2018 05:00:00 8,8 3,6 4 2 WNW 1024,2 20 -
16.02.2018 04:00:00 8,6 3,7 0 0 N 1024,2 20 -
16.02.2018 03:00:00 8,6 4,2 5 3 NW 1024,2 20 -
16.02.2018 02:00:00 8,8 4,2 4 2 W 1024,2 20 -
16.02.2018 01:00:00 9,0 4,6 5 3 WNW 1024,2 20 -
16.02.2018 00:00:00 9,2 5,0 4 2 WNW 1024,1 20 -
15.02.2018 23:00:00 9,4 5,4 0 0 N 1024,1 20 -
15.02.2018 22:00:00 9,2 5,0 0 0 N 1023,9 20 -
15.02.2018 21:00:00 8,8 4,6 0 0 N 1023,4 20 -
15.02.2018 20:00:00 9,6 4,4 0 0 N 1024,3 20 -
15.02.2018 19:00:00 10,0 4,8 0 0 N 1023,1 20 -
15.02.2018 18:00:00 10,0 4,8 4 2 ENE 1022,2 25 0
15.02.2018 17:00:00 10,2 4,1 4 2 E 1021,9 30 0
15.02.2018 16:00:00 11,8 2,5 13 7 E 1021,7 20 60

tt = Température de l'air
td = dewpoint
ff = Vitesse du vent
dd = Direction du vent
ppp = reduced air pressure
vv = visibility
sd = Ensoleillement

stations d'obs. à proximité